Temperature
17 17 17 17 17 17 17 17 17 17 17 17 17 17 17 17 17 16 16 16 16 16 16 16 16 15 15 15 15 15 15 15 15 15 14 14 14 14 14 14 14 14 14
18 18 17 17 17 17 17 17 17 17 17 17 17 17 17 17 16 16 16 16 16 16 16 16 15 15 15 15 15 15 15 15 14 14 14 14 14 14 14 14 14 14 14
18 18 17 17 17 17 17 17 17 17 17 17 17 17 17 16 16 16 16 16 16 16 16 15 15 15 15 15 15 15 15 14 14 14 14 14 14 13 13 13 13 13 13
18 18 17 17 17 17 17 17 17 16 16 16 16 16 16 16 16 16 16 16 16 15 15 15 15 15 15 15 14 14 14 14 14 14 14 14 13 13 13 13 13 13 13
18 18 17 17 17 17 17 17 17 16 16 16 16 16 16 16 16 16 16 16 15 15 15 15 15 15 15 14 14 14 14 14 14 14 13 13 13 13 13 13 13 13 13
18 17 17 17 17 17 17 17 17 16 16 16 16 16 16 16 16 16 16 15 15 15 15 15 15 15 14 14 14 14 14 13 13 13 13 13 13 13 13 13 13 13 13
17 17 17 17 17 17 17 17 16 16 16 16 16 16 16 16 16 15 15 15 15 15 15 15 15 14 14 14 14 14 13 13 13 13 13 13 13 13 12 12 12 12 12
17 17 17 17 17 17 17 16 16 16 16 16 16 16 15 15 15 15 15 15 15 15 15 15 14 14 14 14 14 13 13 13 13 13 13 12 12 12 12 12 12 12 12
17 16 16 16 16 16 16 16 16 16 16 15 15 15 15 15 15 15 15 15 15 15 14 14 14 14 14 14 13 13 13 13 13 12 12 12 12 12 12 12 12 12 12
16 16 16 16 16 16 16 16 16 16 15 15 15 15 15 15 15 15 15 15 15 14 14 14 14 14 13 13 13 13 13 13 12 12 12 12 12 12 12 11 11 11 11
15 15 16 16 16 15 15 15 15 15 15 15 15 15 15 15 15 15 15 14 14 14 14 14 14 13 13 13 13 13 13 12 12 12 12 12 11 11 11 11 11 11 11
15 15 15 15 15 15 15 15 15 15 15 15 15 15 15 15 15 14 14 14 14 14 14 14 13 13 13 13 13 13 12 12 12 12 12 11 11 11 11 11 11 11 11
14 14 15 15 15 15 15 15 15 15 15 15 15 14 14 14 14 14 14 14 14 14 14 13 13 13 13 13 13 12 12 12 12 12 11 11 11 11 11 11 11 11 11
14 14 14 14 15 15 15 15 14 15 14 14 14 14 14 14 14 14 14 14 14 13 13 13 13 13 13 13 12 12 12 12 12 11 11 11 11 11 10 10 10 10 10
14 14 14 14 14 14 14 14 14 14 14 14 14 14 14 14 14 14 13 13 13 13 13 13 13 13 12 12 12 12 12 12 11 11 11 11 11 11 10 10 10 10 10
13 13 13 14 14 14 14 14 14 14 14 14 14 14 14 14 14 13 13 13 13 13 13 12 12 12 12 12 12 12 12 11 11 11 11 11 11 10 10 10 10 10 10
13 13 13 13 13 14 14 14 14 13 13 13 13 13 13 13 13 13 13 13 13 13 12 12 12 12 12 12 12 12 11 11 11 11 11 10 10 10 10 10 10 10 9
13 13 13 13 13 13 13 13 13 13 13 13 13 13 13 13 13 13 13 13 13 12 12 12 12 12 11 11 11 11 11 11 10 10 10 10 10 10 10 10 10 9 9
13 13 12 12 12 13 13 13 13 12 12 13 13 13 12 12 13 12 12 12 12 12 12 12 12 11 11 11 11 11 10 10 10 10 10 10 9 9 9 9 9 9 9
12 12 12 12 12 12 12 12 12 12 12 12 12 12 12 12 12 12 12 12 12 12 12 11 11 11 11 11 10 10 10 10 10 9 9 9 9 9 9 9 9 9 9
12 12 12 12 12 12 12 12 12 12 12 12 12 12 12 12 12 12 12 12 12 12 11 11 11 11 10 10 10 10 9 9 9 9 9 9 9 8 8 8 8 8 8
11 11 11 11 11 11 11 11 11 11 11 11 11 11 11 11 11 11 11 11 11 11 11 11 11 10 10 10 10 9 9 9 8 8 8 8 8 8 8 8 8 7 7
10 10 11 11 11 11 11 11 11 11 11 11 11 11 11 11 11 11 11 11 11 11 11 10 10 10 10 10 9 9 8 8 8 8 8 8 8 7 7 7 7 7 7
10 10 10 10 10 11 11 11 11 11 10 11 10 10 10 10 10 10 10 10 10 10 10 10 10 10 10 9 9 9 9 8 8 7 7 7 7 7 7 7 7 7 6
9 9 10 10 10 10 10 10 10 10 10 10 10 10 10 10 10 10 10 10 10 10 10 9 9 9 9 9 9 9 8 8 8 7 7 7 7 7 7 6 6 6 6
9 9 9 9 9 10 10 10 10 10 10 10 9 9 9 9 9 9 9 9 9 9 9 9 9 9 9 9 8 8 8 7 7 7 7 6 6 6 6 6 6 5 5
Wind_Speed
6 11 17 17 16 16 16 16 16 16 16 16 16 17 17 17 17 17 17 16 16 16 16 16 16 16 16 16 16 16 16 16 16 16 15 15 16 16 15 15 14 14 15
10 15 19 18 17 16 16 16 16 16 16 16 16 16 17 17 16 16 16 16 16 15 15 15 15 15 15 15 15 15 15 15 15 14 14 14 14 14 14 14 13 13 13
12 15 18 18 17 17 16 16 17 17 16 16 16 16 16 16 16 15 15 15 15 15 15 14 14 14 14 14 14 14 14 14 14 14 12 11 12 13 14 13 13 13 12
13 15 16 19 18 17 17 17 17 16 16 16 16 16 15 15 15 15 15 15 14 14 14 14 13 13 13 13 13 13 13 14 14 13 11 10 10 12 12 12 12 12 12
11 13 16 19 18 18 18 17 17 16 16 16 16 16 15 15 15 15 14 14 14 14 13 13 13 12 12 12 12 13 13 13 13 12 11 10 10 11 11 11 11 11 11
10 12 15 18 19 18 18 17 17 16 16 16 16 15 15 15 15 14 14 14 14 14 13 12 12 12 12 11 11 12 12 12 12 11 10 9 9 10 10 11 10 10 10
10 12 15 16 18 19 18 17 17 16 16 16 15 15 15 15 14 14 14 14 14 13 12 11 11 11 10 10 10 10 11 11 11 10 9 9 9 10 10 10 10 10 9
12 11 14 16 16 17 18 17 17 16 16 15 15 15 15 14 14 14 13 13 13 12 11 10 10 9 9 9 9 9 10 10 9 8 7 7 8 9 9 9 8 9 9
11 11 11 13 14 15 16 17 17 16 16 15 15 15 14 14 13 13 13 13 12 11 10 10 9 9 8 8 8 8 9 9 9 7 6 6 7 8 8 7 7 7 8
8 9 9 11 12 12 13 15 16 16 16 15 15 15 14 14 13 12 12 12 11 10 9 9 8 7 7 7 7 8 8 8 8 6 5 5 6 6 6 6 6 6 6
7 6 8 9 10 11 11 13 15 15 15 15 14 14 14 12 11 11 11 11 10 9 8 7 7 6 6 6 6 7 7 6 6 5 4 5 5 5 6 5 5 5 5
9 7 7 8 9 10 10 10 11 12 12 12 12 12 11 11 10 10 11 10 9 8 7 6 6 5 5 5 6 6 6 6 5 4 4 4 4 4 5 5 4 4 4
10 8 7 8 9 9 8 9 8 9 10 10 11 11 11 10 9 8 8 8 7 6 5 5 4 4 4 4 4 5 6 5 5 4 3 3 3 4 4 4 4 4 4
9 7 7 7 8 8 8 7 8 7 8 8 9 11 10 8 7 6 6 6 5 5 4 4 3 3 4 4 5 5 5 5 4 4 3 3 3 3 3 4 4 4 3
8 8 7 7 7 7 7 6 7 6 6 8 9 10 11 8 6 6 5 5 5 4 4 3 3 2 2 3 4 4 4 4 4 4 3 2 2 2 2 3 3 4 4
8 8 7 7 7 7 6 5 6 6 7 8 7 9 10 9 8 6 5 4 4 4 4 4 3 2 2 2 2 3 3 4 4 4 3 3 3 2 2 3 3 4 5
8 8 8 8 7 6 6 6 6 6 7 6 7 8 9 10 9 7 5 4 4 5 5 4 3 3 2 2 2 2 2 3 3 3 3 3 3 3 3 3 4 4 5
7 8 7 7 7 6 6 5 5 6 6 6 6 7 7 8 9 8 5 4 5 5 4 3 2 2 1 1 1 1 1 2 2 3 3 3 3 3 3 3 4 4 5
6 7 7 7 8 6 6 5 6 6 5 6 6 6 6 7 8 7 5 5 6 5 3 3 2 2 1 1 1 1 1 1 1 2 3 2 2 2 3 3 3 5 6
5 6 6 6 6 6 5 5 4 4 3 4 5 6 6 6 7 6 5 5 6 4 2 2 2 2 1 1 1 1 1 1 1 1 1 1 2 2 2 3 4 4 6
4 5 5 6 6 6 5 4 4 3 3 2 4 5 6 6 7 7 5 4 5 3 3 3 2 2 1 1 1 2 3 2 1 1 0 1 1 1 2 3 3 4 5
4 4 5 5 5 5 4 4 3 3 2 2 3 4 5 5 5 6 6 4 4 3 3 3 3 2 1 1 1 1 1 3 2 2 1 1 0 1 2 2 3 4 5
4 4 4 4 4 4 5 4 3 3 2 2 2 2 4 5 5 4 5 5 4 3 3 3 3 3 2 0 1 2 2 2 3 3 2 1 1 1 2 2 3 4 4
3 2 3 3 3 4 5 5 6 4 4 3 3 3 3 5 5 4 5 6 4 3 3 3 2 2 3 2 0 0 1 2 1 2 3 3 3 3 2 2 3 4 4
3 3 2 3 3 3 4 5 6 4 2 3 3 3 3 3 5 5 5 5 4 3 3 2 2 2 2 2 1 0 0 1 1 1 3 3 3 3 3 3 3 3 4
3 2 2 3 3 3 3 4 5 5 5 5 5 4 3 2 2 4 5 5 5 4 3 3 2 2 2 2 1 1 1 1 1 1 2 3 4 3 3 2 2 3 4
Wind_Direction
163 159 151 146 142 136 131 127 124 120 117 114 113 111 111 110 109 108 105 103 101 99 96 94 92 90 88 87 86 84 82 80 80 78 78 79 78 77 75 73 71 68 68
152 153 148 145 142 138 134 130 126 123 120 118 116 114 112 112 111 109 107 105 103 101 99 97 94 92 89 87 86 85 84 82 81 79 78 78 77 77 75 75 73 72 70
141 145 145 145 142 138 135 133 129 126 123 121 119 117 116 114 112 110 108 107 105 102 101 99 96 93 90 87 86 85 84 84 80 79 80 76 77 78 76 75 73 73 70
140 143 147 146 142 138 135 133 131 128 126 123 121 120 119 117 114 111 110 109 107 104 102 100 98 95 92 89 87 85 83 84 81 79 75 73 76 78 77 74 71 70 67
134 139 145 145 142 140 138 135 132 129 127 125 123 122 121 119 117 114 112 112 109 105 104 103 100 97 94 93 90 87 84 82 80 75 72 70 73 77 75 73 69 67 64
131 136 141 143 143 141 139 137 134 130 128 127 125 123 122 120 117 116 115 115 112 109 106 103 101 100 98 95 91 89 87 84 77 74 77 74 74 77 77 73 69 66 62
134 134 142 141 144 143 141 139 135 133 131 129 128 126 123 120 118 117 118 118 115 112 109 105 102 101 100 97 93 93 92 87 81 77 75 74 75 76 75 72 67 63 60
138 137 142 142 140 145 144 142 139 138 135 133 131 128 125 123 122 121 121 119 118 115 112 109 106 104 101 95 92 95 95 89 85 82 76 75 78 74 72 69 65 61 59
131 133 136 139 140 142 145 144 142 140 138 138 135 131 128 126 124 123 122 120 120 119 116 113 110 106 103 96 89 93 96 93 91 89 84 81 81 74 71 67 62 59 57
123 129 133 136 136 136 140 143 143 143 141 138 136 133 130 128 125 125 124 122 122 121 120 117 112 109 105 93 85 92 96 94 96 95 92 92 87 77 69 62 58 60 55
124 128 132 135 134 135 136 139 141 142 141 138 137 134 129 126 125 126 127 126 126 124 121 118 113 111 105 87 80 91 95 94 95 97 101 100 89 76 67 61 58 56 52
148 147 145 139 137 136 138 133 137 141 141 140 137 133 131 130 130 129 131 129 128 126 121 115 109 104 91 75 74 86 93 97 97 99 106 100 86 73 61 55 52 49 50
157 151 147 145 139 137 135 136 135 138 141 141 141 138 133 129 129 127 126 126 124 121 110 101 91 85 85 78 76 88 95 99 103 101 102 104 85 64 51 47 40 42 42
152 151 148 139 136 133 132 135 134 137 144 146 145 145 138 133 130 130 128 129 126 123 110 100 89 79 76 78 92 101 95 100 110 102 91 93 83 58 45 37 31 28 31
152 150 151 143 138 137 133 135 135 138 147 150 148 148 145 142 142 136 136 134 131 128 125 114 102 87 72 78 92 106 103 103 111 105 93 85 77 57 34 21 15 15 13
156 156 153 147 142 137 141 143 142 143 143 144 148 154 152 148 146 145 145 140 139 138 139 132 122 104 84 82 81 97 105 109 112 106 94 79 71 51 24 8 3 358 1
164 156 155 152 143 142 140 145 142 141 141 140 138 148 154 153 152 151 148 148 151 150 138 122 103 88 78 73 68 77 98 104 112 110 96 83 64 40 19 2 350 349 351
161 155 157 151 144 144 141 141 138 136 136 136 139 142 148 152 154 150 149 153 151 142 131 125 126 104 83 80 65 38 69 93 107 111 101 87 64 40 21 1 352 346 342
160 155 156 151 151 149 144 136 133 133 130 137 139 140 144 148 149 147 149 149 147 133 127 141 129 131 119 99 101 46 42 76 93 102 95 86 65 40 21 5 357 350 345
149 145 150 152 152 147 136 124 116 114 119 128 139 143 142 148 150 143 138 145 142 137 137 139 134 111 135 155 98 40 350 336 57 94 104 76 58 32 11 6 3 350 347
134 138 145 150 153 149 148 145 144 154 159 150 147 146 143 145 152 146 142 140 143 153 155 147 136 124 85 103 73 11 348 340 335 326 98 82 42 21 15 2 353 351 347
146 146 145 148 159 161 163 161 156 149 152 159 145 143 147 148 152 156 150 152 147 144 141 141 133 131 94 86 113 99 339 327 322 318 303 262 298 358 359 338 338 340 338
148 156 156 163 163 160 152 141 127 106 103 116 143 166 157 156 155 151 153 145 143 146 157 156 150 148 163 217 106 142 158 240 295 305 301 286 285 292 315 321 321 322 329
164 155 153 164 164 158 150 156 162 171 178 193 182 174 156 152 150 145 149 141 138 144 155 161 152 154 153 168 15 29 171 172 199 293 308 309 294 280 282 302 311 315 323
165 162 162 170 164 165 164 168 172 178 180 160 152 157 165 151 149 149 152 143 137 137 139 136 140 142 157 172 177 170 41 40 158 208 276 297 304 278 271 277 286 306 312
161 158 160 161 172 172 176 178 176 171 165 161 166 168 175 166 156 146 146 143 144 143 145 150 138 147 163 159 165 176 175 191 228 216 256 284 285 285 281 273 266 297 308
Height
1527 1529 1531 1533 1535 1536 1537 1538 1539 1540 1541 1542 1542 1543 1544 1544 1545 1545 1546 1546 1547 1547 1547 1547 1547 1547 1546 1546 1546 1546 1545 1545 1544 1544 1544 1544 1543 1543 1542 1542 1541 1540 1540
1524 1528 1531 1533 1534 1536 1537 1538 1539 1541 1541 1542 1543 1544 1544 1545 1546 1546 1547 1547 1548 1548 1548 1548 1548 1548 1548 1547 1547 1547 1546 1546 1546 1545 1545 1545 1545 1544 1544 1543 1542 1542 1541
1524 1527 1530 1532 1534 1536 1537 1539 1540 1541 1542 1543 1544 1545 1545 1546 1547 1547 1548 1548 1549 1549 1549 1549 1549 1549 1549 1549 1548 1548 1548 1547 1547 1547 1546 1546 1546 1545 1545 1544 1543 1543 1542
1525 1527 1529 1532 1534 1536 1537 1539 1540 1541 1543 1544 1545 1545 1546 1547 1548 1548 1549 1549 1550 1550 1550 1550 1550 1550 1550 1550 1549 1549 1549 1549 1548 1548 1547 1547 1547 1546 1546 1545 1544 1543 1542
1525 1527 1529 1531 1534 1536 1537 1539 1540 1542 1543 1544 1545 1546 1547 1548 1548 1549 1550 1550 1550 1551 1551 1551 1551 1551 1551 1551 1550 1550 1550 1550 1549 1549 1548 1548 1548 1547 1546 1546 1545 1544 1543
1524 1527 1529 1531 1533 1535 1537 1539 1540 1542 1543 1544 1545 1546 1547 1548 1549 1550 1550 1551 1551 1551 1551 1552 1552 1552 1551 1551 1551 1551 1551 1551 1550 1550 1549 1549 1548 1548 1547 1546 1545 1544 1544
1524 1527 1529 1531 1533 1535 1537 1539 1540 1542 1543 1545 1546 1547 1548 1548 1549 1550 1551 1551 1551 1552 1552 1552 1552 1552 1552 1552 1552 1552 1551 1551 1551 1550 1550 1550 1549 1548 1547 1546 1546 1545 1544
1523 1526 1528 1531 1533 1535 1536 1538 1540 1541 1543 1544 1546 1547 1548 1549 1549 1550 1551 1551 1552 1552 1552 1553 1553 1553 1553 1553 1552 1552 1552 1552 1551 1551 1550 1550 1549 1549 1548 1547 1546 1545 1544
1523 1525 1528 1530 1532 1534 1536 1538 1540 1541 1543 1544 1545 1546 1548 1549 1550 1550 1551 1551 1552 1552 1552 1553 1553 1553 1553 1553 1553 1553 1552 1552 1551 1551 1550 1550 1550 1549 1548 1547 1546 1545 1544
1523 1525 1527 1529 1531 1533 1535 1537 1539 1541 1542 1544 1545 1546 1547 1548 1549 1550 1551 1551 1552 1552 1552 1553 1553 1553 1553 1553 1553 1553 1552 1552 1551 1551 1550 1550 1549 1549 1547 1546 1545 1544 1543
1521 1524 1526 1528 1530 1532 1534 1536 1538 1540 1542 1543 1545 1546 1547 1548 1549 1550 1551 1551 1552 1552 1552 1552 1552 1553 1553 1552 1552 1552 1552 1552 1551 1551 1550 1550 1549 1548 1547 1546 1545 1544 1543
1519 1522 1525 1527 1529 1531 1533 1534 1537 1539 1541 1542 1544 1545 1546 1547 1548 1549 1550 1551 1551 1552 1552 1552 1552 1552 1552 1552 1552 1552 1551 1551 1551 1550 1550 1549 1548 1548 1546 1545 1544 1543 1542
1519 1521 1523 1526 1527 1529 1531 1533 1535 1537 1539 1541 1543 1544 1546 1547 1548 1549 1549 1550 1551 1551 1551 1551 1551 1551 1551 1551 1551 1551 1550 1550 1550 1550 1549 1548 1548 1547 1545 1544 1543 1542 1541
1517 1520 1522 1524 1526 1528 1530 1532 1534 1535 1538 1540 1542 1543 1544 1545 1546 1547 1548 1549 1550 1550 1550 1550 1551 1551 1550 1550 1550 1550 1549 1549 1549 1548 1548 1547 1546 1546 1544 1543 1542 1541 1540
1516 1518 1521 1522 1524 1526 1529 1531 1532 1534 1536 1538 1540 1542 1543 1544 1545 1546 1547 1548 1549 1549 1549 1549 1550 1550 1549 1549 1549 1548 1548 1548 1547 1547 1546 1546 1545 1544 1543 1542 1541 1540 1539
1514 1517 1519 1521 1523 1525 1527 1529 1531 1533 1535 1537 1538 1540 1541 1543 1544 1545 1546 1547 1547 1548 1548 1548 1549 1549 1548 1548 1547 1547 1547 1546 1545 1545 1545 1544 1543 1543 1541 1540 1539 1538 1537
1513 1515 1518 1519 1521 1523 1525 1527 1530 1532 1533 1535 1536 1538 1539 1541 1542 1544 1544 1545 1546 1546 1547 1547 1547 1547 1547 1546 1546 1545 1545 1544 1544 1543 1543 1542 1541 1541 1540 1538 1537 1536 1535
1511 1514 1516 1518 1520 1522 1524 1525 1527 1530 1531 1533 1534 1536 1537 1539 1540 1541 1542 1543 1544 1544 1545 1545 1545 1545 1545 1544 1544 1543 1543 1542 1542 1541 1541 1540 1539 1538 1537 1536 1535 1534 1533
1510 1512 1514 1516 1518 1520 1522 1524 1526 1528 1530 1531 1533 1534 1536 1537 1538 1539 1540 1541 1542 1542 1543 1543 1543 1543 1543 1542 1542 1541 1541 1540 1540 1539 1538 1538 1537 1536 1535 1534 1533 1532 1530
1508 1510 1513 1515 1517 1518 1520 1522 1523 1525 1527 1529 1531 1532 1533 1535 1536 1537 1538 1539 1540 1540 1540 1541 1541 1541 1541 1540 1540 1539 1539 1538 1538 1537 1536 1535 1535 1534 1533 1532 1530 1529 1528
1506 1508 1510 1512 1514 1516 1518 1519 1520 1522 1524 1526 1528 1530 1531 1533 1534 1535 1536 1536 1537 1538 1538 1538 1539 1539 1538 1538 1538 1537 1536 1536 1535 1535 1534 1533 1532 1531 1530 1529 1528 1526 1525
1503 1505 1507 1509 1511 1513 1515 1517 1518 1520 1522 1523 1525 1527 1528 1530 1532 1533 1533 1533 1534 1535 1535 1535 1536 1536 1536 1536 1536 1535 1534 1534 1532 1532 1531 1530 1529 1528 1527 1526 1525 1524 1522
1501 1503 1505 1507 1509 1511 1513 1515 1516 1517 1519 1520 1521 1523 1525 1527 1529 1529 1530 1531 1531 1532 1532 1532 1533 1533 1533 1533 1533 1534 1532 1531 1530 1529 1528 1527 1527 1525 1524 1523 1522 1520 1519
1499 1501 1503 1505 1506 1508 1510 1511 1513 1513 1514 1516 1518 1520 1522 1524 1525 1527 1528 1528 1529 1529 1530 1530 1530 1530 1531 1530 1531 1531 1531 1529 1528 1526 1525 1524 1523 1522 1521 1520 1518 1517 1515
1497 1499 1500 1502 1503 1505 1507 1509 1510 1511 1512 1514 1515 1517 1519 1520 1522 1523 1525 1525 1526 1527 1527 1527 1528 1528 1528 1528 1528 1528 1527 1527 1526 1524 1521 1520 1520 1519 1518 1517 1515 1513 1512
1494 1496 1497 1498 1500 1501 1503 1505 1507 1508 1509 1510 1512 1513 1515 1517 1518 1520 1521 1522 1524 1524 1524 1524 1525 1525 1525 1525 1525 1525 1524 1523 1523 1521 1519 1517 1515 1515 1514 1513 1511 1510 1508